This is the latest recevied weather packets stored in our database for station/object W2EH. If no packets are shown the sender has not sent any weather packets the latest 10 day(s).
| Time | Temp. | Humidity | Pressure | Rain* | Wind** | Luminosity | Snow |
|---|---|---|---|---|---|---|---|
| 1777047702 | 27.22° C | 72% | 1006.6 hPa | 0 mm | - | 175 W/m² | - |
| 1777047399 | 27.22° C | 72% | 1006.4 hPa | 0 mm | - | 175 W/m² | - |
| 1777047093 | 27.22° C | 72% | 1006.5 hPa | 0 mm | - | 255 W/m² | - |
| 1777046793 | 26.67° C | 73% | 1006.5 hPa | 0 mm | - | 133 W/m² | - |
| 1777046488 | 26.11° C | 74% | 1006.9 hPa | 0 mm | - | 122 W/m² | - |
| 1777046183 | 26.11° C | 73% | 1006.6 hPa | 0 mm | - | 95 W/m² | - |
| 1777045879 | 26.67° C | 72% | 1006.6 hPa | 0 mm | - | 128 W/m² | - |
| 1777045575 | 27.22° C | 71% | 1006.5 hPa | 0 mm | - | 233 W/m² | - |
| 1777045271 | 27.22° C | 72% | 1006.9 hPa | 0 mm | - | 360 W/m² | - |
| 1777044968 | 26.67° C | 73% | 1006.8 hPa | 0 mm | - | 595 W/m² | - |
| 1777044663 | 26.67° C | 72% | 1006.6 hPa | 0 mm | - | 543 W/m² | - |
| 1777044360 | 26.67° C | 75% | 1006.8 hPa | 0 mm | - | 590 W/m² | - |
| 1777044054 | 26.11° C | 76% | 1006.6 hPa | 0 mm | - | 515 W/m² | - |
| 1777043751 | 25.56° C | 76% | 1006.6 hPa | 0 mm | - | 496 W/m² | - |
| 1777043448 | 25.56° C | 77% | 1006.8 hPa | 0 mm | - | 303 W/m² | - |
| 1777043143 | 25.56° C | 78% | 1006.6 hPa | 0 mm | - | 536 W/m² | - |
| 1777042839 | 25.56° C | 78% | 1007 hPa | 0 mm | - | 510 W/m² | - |
| 1777042535 | 25° C | 79% | 1006.8 hPa | 0 mm | - | 204 W/m² | - |
| 1777042231 | 25° C | 79% | 1006.9 hPa | 0 mm | - | 114 W/m² | - |
| 1777041927 | 25° C | 78% | 1006.9 hPa | 0 mm | - | 164 W/m² | - |
| 1777041624 | 25° C | 79% | 1006.9 hPa | 0 mm | - | 132 W/m² | - |
| 1777041320 | 25° C | 79% | 1006.8 hPa | 0 mm | - | 176 W/m² | - |
| 1777041017 | 25° C | 79% | 1006.8 hPa | 0 mm | - | 67 W/m² | - |
| 1777040713 | 25° C | 79% | 1006.6 hPa | 0 mm | - | 110 W/m² | - |
| 1777040412 | 25° C | 78% | 1006.9 hPa | 0 mm | - | 143 W/m² | - |
* Rain latest hour (hover to see other rain measurements)
** Current wind speed in m/s (hover to see current wind gust speed)